Location: Austin
(30.3000°N, 97.7500°W)
Time: 22:28:22
(UTC-05:00)

Cosmos 2016 Rocket - Pass Details

Date: 06 May 2026
Orbit: 945 x 1000 km, 83.0° (Epoch: 13 May)

Event Time Altitude Azimuth Distance (km) Brightness Sun altitude
Exits shadow 22:30:35 65° 147° (SSE) 1,078 3.9 -26.5°
Maximum altitude 22:31:25 75° 93° (E) 1,021 3.9 -26.6°
Drops below altitude 10° 22:37:40 10° 10° (N) 2,728 6.7 -27.6°
Sets 22:40:10 0° 8° (N) 3,671 7.5 -28.0°
